Location: Blairvadach
(56.2780°N, 6.9720°W)
Time: 23:28:25
(UTC+00:00)

Envisat - Pass Details

Date: 17 February 2019
Orbit: 764 x 766 km, 98.2° (Epoch: 24 March)

Event Time Altitude Azimuth Distance (km) Brightness Sun altitude
Rises 20:46:17 0° 223° (SW) 3,229 6.5 -26.8°
Reaches altitude 10° 20:49:54 10° 250° (WSW) 2,309 6.1 -27.3°
Maximum altitude 20:52:18 13° 278° (W) 2,092 6.1 -27.6°
Drops below altitude 10° 20:54:42 10° 307° (NW) 2,317 6.4 -27.9°
Sets 20:58:22 0° 334° (NNW) 3,249 6.9 -28.4°
